INTELSAT 15 (IS-15)     
1 36106U 09067A   19263.88591053 -.00000190  00000-0  00000-0 0  9999
2 36106   0.0033  77.8154 0002250 109.5881 216.1691  1.00272362 16621
BLOCK DM-SL R/B         
1 36107U 09067B   19264.41589159 -.00000044  00000-0  00000+0 0  9991
2 36107  10.9749 119.6042 4431315 170.8280  74.0359  1.73591483 62185